DELTA 1 DEB *, 6213

Orbit data source: Space-Track

DELTA 1 DEB *, 6213 is space debris in SSO originally from a launch on Sun, 02 Oct 1966 UTC launched from the Air Force Western Test Range (AFWTR). Debris objects in space refer to the collection of defunct objects orbiting the Earth. Examples of debris include non-operational satellites, rocket bodies, and fragments generated from explosions, collisions, or faulty payload assembly.

Loading next visibility...
DELTA 1 DEB * details
Identifier
6213, 1966-087E
Orbit
SSO
Last TLE update22 hours ago
Origin
Flag of USGSFC (US)
ManufacturerUnknown
MissionSpacecraft
Bus & MotorUnknown
MassUnknown
Launch date (UTC)
1966-10-02 (58 years ago)
Launch vehicleUnknown
Launch site
Air Force Western Test Range (AFWTR)
Object type
Payload
Rocket body
Debris
Shape & HBRUnknown
Radar Cross SectionSmall (<0.1 m²)

Expand to show TLE details & history

TLE from 22 hours ago
0 DELTA 1 DEB *
1 06213U 66087E   24356.33764272  .00004980  00000-0  12066-1 0  9990
2 06213 101.8264 298.2845 0062776 341.5145 173.1415 13.21703884724513
Epoch: 2024-12-21T08:06Z
Definitive object data (Epoch: 2024-12-21T08:06:12.331Z)
Latitude24.71438°
Longitude-88.15471°
Altitude1,228.093 km
Speed7.22 km/s
True Right ascension08h 15m 08s
True Declination24° 35' 32"
Sunlit
Object was in full shadow at TLE epoch
Visualization TLE readout
Latitude-58.74046°
Longitude-112.68456°
Altitude1,207.73 km
Speed7.246 km/s
Apparent Right ascension14h 18m 24s
Apparent Declination-80° 58' 59"
Sunlit
Object is in daylight
Visualization observer readout
Local Sidereal Time05:25:11
Azimuth170.595° S
Elevation-45.74°
Doppler factor1
Orbital elements
Apogee altitude1,223.097 km
Perigee altitude1,128.257 km
Semi-major axis7,553.814 km
Eccentricity0.0062776
Inclination101.8264°
RAAN298.2845°
Arg. of periapsis341.5145°
True anomaly173.22674°
Mean anomaly173.1415°
Eccentric anomaly173.18419°
Mean motion3.30593 °/min
BSTAR0.012066
Orbital period108.9 mins
Loading maneuver chart data...
Loading historical data...
Loading historical data...
Loading historical data...
Loading historical data...
Loading historical data...
Loading historical data...
Loading historical data...

DELTA 1 DEB * Visibility forecast

Observer location: undefined°, undefined

Span
Click to sort rows by Start time (UTC) header in descending order
Start Az.
Max El. time (UTC)
Max El. Az.
Max El.
End time (UTC)
End Az.
6 mins2024-12-22 07:36:27.072Z64.654° ENE2024-12-22 07:39:27.072Z90.145° ESE13.547°2024-12-22 07:42:27.072Z115.942° SE
13 mins2024-12-22 09:21:27.072Z19.484° NNE2024-12-22 09:27:27.072Z99.273° ESE44.827°2024-12-22 09:34:27.072Z196.405° SSW
8 mins2024-12-22 11:10:27.072Z337.882° N2024-12-22 11:13:27.072Z308.523° NW19.366°2024-12-22 11:18:27.072Z263.138° W
12 mins2024-12-22 19:46:27.072Z146.314° SSE2024-12-22 19:52:27.072Z45.737° ENE42.121°2024-12-22 19:58:27.072Z348.64° N
8 mins2024-12-22 21:36:27.072Z231.66° WSW2024-12-22 21:39:27.072Z263.848° W20.218°2024-12-22 21:44:27.072Z311.656° NW
|